Weather History for Defiance, OH

Change the Weather History Date:

Wednesday, March 6, 2013

  Actual Average Record
Temperature  
Mean Temperature 32 °F -  
Max Temperature 37 °F 41 °F 69 °F (1983)
Min Temperature 26 °F 23 °F -4 °F (1978)
Degree Days  
Heating Degree Days 34    
Moisture  
Dew Point 24 °F    
Average Humidity 75    
Maximum Humidity 93    
Minimum Humidity 65    
Precipitation  
Precipitation 0.00 in - - ()
Sea Level Pressure  
Sea Level Pressure 30.01 in    
Wind  
Wind Speed 13 mph (North)    
Max Wind Speed 20 mph    
Max Gust Speed 28 mph    
Visibility 9 miles    
Events Snow    
Averages and records for this station are not official NWS values.
T = Trace of Precipitation, MM = Missing Value Source: NWS Daily Summary

Daily Weather History Graph

Daily Weather History Graph

Search for Another Location

Airport:

Trip Planner

Search our weather history database for the weather conditions in past years. The results will help you decide how hot, cold, wet, or windy it might be!

Date:

Astronomy

Mar. 06, 2013 Rise Set
Actual Time 7:03 AM EST 6:34 PM EST
Civil Twilight 6:36 AM EST 7:02 PM EST
Nautical Twilight 6:04 AM EST 7:34 PM EST
Astronomical Twilight 5:32 AM EST 8:06 PM EST
Moon 3:14 AM EST (3/6) 1:12 PM EST (3/6)
Length of Visible Light 12h 25m
Length of Day
11h 30m
Waning Crescent, 30% of the Moon is Illuminated
Mar 6
Waning Crescent
Mar 11
New
Mar 19
First Quarter
Mar 27
Full
Apr 3
Last Quarter

Hourly Weather History & Observations

Time (EST) Temp. Windchill Dew Point Humidity Pressure Visibility Wind Dir Wind Speed Gust Speed Precip Events Conditions
12:01 AM 28.4 °F 16.6 °F 26.6 °F 93% 29.76 in 1.2 mi NNE 16.1 mph - 0.00 in Snow Light Snow
12:48 AM 28.4 °F 16.2 °F 24.8 °F 86% 29.77 in 2.5 mi NNE 17.3 mph - 0.00 in Snow Light Snow
12:53 AM 30.0 °F 17.5 °F 24.1 °F 79% 29.79 in 3.0 mi NNE 19.6 mph - 0.00 in Snow Light Snow
1:35 AM 28.4 °F 15.4 °F 23.0 °F 80% 29.78 in 10.0 mi NNE 19.6 mph 27.6 mph 0.00 in   Overcast
1:53 AM 28.9 °F 16.5 °F 21.9 °F 75% 29.82 in 10.0 mi NNE 18.4 mph 25.3 mph 0.00 in   Overcast
2:06 AM 28.4 °F 15.8 °F 21.2 °F 74% 29.80 in 10.0 mi NNE 18.4 mph 24.2 mph N/A   Overcast
2:36 AM 28.4 °F 16.6 °F 21.2 °F 74% 29.81 in 10.0 mi NNE 16.1 mph 24.2 mph N/A   Mostly Cloudy
2:45 AM 28.4 °F 16.6 °F 21.2 °F 74% 29.81 in 10.0 mi North 16.1 mph - N/A   Partly Cloudy
2:53 AM 28.0 °F 15.7 °F 21.9 °F 78% 29.84 in 10.0 mi North 17.3 mph 24.2 mph N/A   Scattered Clouds
3:01 AM 28.4 °F 16.6 °F 21.2 °F 74% 29.81 in 10.0 mi North 16.1 mph 24.2 mph N/A   Mostly Cloudy
3:08 AM 28.4 °F 16.6 °F 21.2 °F 74% 29.81 in 10.0 mi North 16.1 mph 26.5 mph N/A   Scattered Clouds
3:53 AM 27.0 °F 14.3 °F 21.0 °F 78% 29.85 in 10.0 mi North 17.3 mph 24.2 mph N/A   Clear
4:34 AM 26.6 °F 15.2 °F 21.2 °F 80% 29.86 in 10.0 mi North 13.8 mph - N/A   Mostly Cloudy
4:49 AM 26.6 °F 15.2 °F 21.2 °F 80% 29.87 in 10.0 mi North 13.8 mph - N/A   Scattered Clouds
4:53 AM 27.0 °F 15.6 °F 21.0 °F 78% 29.90 in 10.0 mi North 13.8 mph - N/A   Partly Cloudy
5:53 AM 26.1 °F 15.0 °F 21.0 °F 81% 29.94 in 10.0 mi North 12.7 mph - N/A   Clear
6:30 AM 26.6 °F 15.7 °F 21.2 °F 80% 29.94 in 10.0 mi NNW 12.7 mph - N/A   Mostly Cloudy
7:08 AM 26.6 °F 16.2 °F 21.2 °F 80% 29.97 in 10.0 mi North 11.5 mph - N/A   Scattered Clouds
7:53 AM 27.0 °F 16.7 °F 21.9 °F 81% 30.03 in 10.0 mi North 11.5 mph - N/A   Clear
8:53 AM 30.0 °F 20.5 °F 23.0 °F 75% 30.06 in 10.0 mi NNW 11.5 mph - N/A   Clear
9:17 AM 30.2 °F 21.3 °F 24.8 °F 80% 30.05 in 10.0 mi NNW 10.4 mph - N/A   Mostly Cloudy
9:53 AM 32.0 °F 23.0 °F 24.1 °F 73% 30.09 in 10.0 mi North 11.5 mph - N/A   Overcast
10:53 AM 34.0 °F 25.5 °F 25.0 °F 70% 30.12 in 10.0 mi North 11.5 mph - N/A   Overcast
11:53 AM 35.1 °F 29.3 °F 25.0 °F 67% 30.13 in 10.0 mi NNE 6.9 mph - N/A   Overcast
12:53 PM 36.0 °F 30.3 °F 26.1 °F 67% 30.16 in 10.0 mi NW 6.9 mph - N/A   Overcast
1:53 PM 36.0 °F 29.6 °F 26.1 °F 67% 30.15 in 10.0 mi North 8.1 mph - N/A   Overcast
2:53 PM 37.0 °F 32.4 °F 26.1 °F 65% 30.16 in 10.0 mi NW 5.8 mph - N/A   Overcast
3:40 PM 37.4 °F 29.8 °F 26.6 °F 65% 30.13 in 10.0 mi NW 11.5 mph - N/A   Overcast
3:53 PM 37.0 °F 33.3 °F 26.1 °F 65% 30.17 in 10.0 mi Variable 4.6 mph - N/A   Overcast
4:15 PM 35.6 °F 29.9 °F 26.6 °F 70% 30.15 in 10.0 mi WNW 6.9 mph - N/A   Overcast
4:53 PM 35.1 °F 29.3 °F 26.1 °F 70% 30.19 in 10.0 mi NW 6.9 mph - N/A   Overcast
5:53 PM 34.0 °F 27.2 °F 26.1 °F 73% 30.21 in 10.0 mi WNW 8.1 mph - N/A   Overcast
6:05 PM 33.8 °F 28.6 °F 26.6 °F 75% 30.18 in 10.0 mi NW 5.8 mph - N/A   Overcast
6:53 PM 34.0 °F - 26.1 °F 73% 30.22 in 10.0 mi Calm Calm - N/A   Overcast
7:53 PM 34.0 °F 31.0 °F 26.1 °F 73% 30.24 in 10.0 mi West 3.5 mph - N/A   Overcast
8:53 PM 33.1 °F 30.0 °F 26.1 °F 75% 30.24 in 10.0 mi WSW 3.5 mph - N/A   Overcast
9:53 PM 33.1 °F - 26.1 °F 75% 30.25 in 10.0 mi Calm Calm - N/A   Overcast
10:53 PM 33.1 °F 30.0 °F 26.1 °F 75% 30.25 in 10.0 mi West 3.5 mph - N/A   Overcast
11:53 PM 33.1 °F - 26.1 °F 75% 30.24 in 10.0 mi Calm Calm - N/A   Overcast